Stations météo

réclame
Mon MeteoGroup
St-Auban-Sur-Durance, France (7588): Température de l'air & dewpoint: 18.05.2019 05:00:00 - 24.05.2019 05:00:00 (CEST)St-Auban-Sur-Durance, France (7588): Température de l'air 5cm: 18.05.2019 05:00:00 - 24.05.2019 05:00:00 (CEST)St-Auban-Sur-Durance, France (7588): Température de l'air -20cm: 18.05.2019 05:00:00 - 24.05.2019 05:00:00 (CEST)St-Auban-Sur-Durance, France (7588): Vitesse du vent & gusts: 18.05.2019 05:00:00 - 24.05.2019 05:00:00 (CEST)St-Auban-Sur-Durance, France (7588): Direction du vent: 18.05.2019 05:00:00 - 24.05.2019 05:00:00 (CEST)St-Auban-Sur-Durance, France (7588): reduced air pressure: 18.05.2019 05:00:00 - 24.05.2019 05:00:00 (CEST)St-Auban-Sur-Durance, France (7588): visibility: 18.05.2019 05:00:00 - 24.05.2019 05:00:00 (CEST)St-Auban-Sur-Durance, France (7588): Ensoleillement: 18.05.2019 05:00:00 - 24.05.2019 05:00:00 (CEST)St-Auban-Sur-Durance, France (7588): Quantités de précipitations: 18.05.2019 05:00:00 - 24.05.2019 05:00:00 (CEST)
Date & Time tt [°C] td [°C] tt 5cm [°C] tt -20cm [°C] ff [km/h] ff [knt] fx [km/h] fx [knt] dd ppp [hPa] vv [km] sd [min] rr [mm]
24.05.2019 05:00:00 10,0 9,4 9,5 19,6 5 3 8 5 NE 1015,4 16 0 0,0
24.05.2019 04:00:00 10,1 9,5 9,5 19,8 2 1 6 4 NE 1015,6 13 0 0,0
24.05.2019 03:00:00 10,6 9,7 10,3 20,0 5 3 8 4 NW 1015,7 19 0 0,0
24.05.2019 02:00:00 11,4 10,0 10,7 20,2 4 2 6 3 ESE 1015,8 20 0 0,0
24.05.2019 01:00:00 12,2 10,6 11,7 20,4 3 2 8 5 E 1015,9 20 0 0,0
24.05.2019 00:00:00 13,1 10,8 12,8 20,5 8 4 10 5 WNW 1016,0 20 0 0,0
23.05.2019 23:00:00 15,1 11,1 13,6 20,6 4 2 12 6 S 1015,7 20 0 0,0
23.05.2019 22:00:00 17,5 11,3 15,2 20,7 4 2 35 19 SE 1014,7 20 0 0,0
23.05.2019 21:00:00 19,7 10,9 18,9 20,6 16 9 36 20 SSW 1013,5 20 37 0,0
23.05.2019 20:00:00 21,7 8,2 21,5 20,5 23 12 34 18 SSW 1012,4 20 44 0,0
23.05.2019 19:00:00 22,8 9,9 26,6 20,3 19 11 36 19 SSW 1012,2 20 60 0,0
23.05.2019 18:00:00 23,3 11,4 28,3 20,0 21 11 34 18 SSW 1012,2 20 60 0,0
23.05.2019 17:00:00 23,6 11,0 30,3 19,6 17 9 31 17 SSW 1012,4 20 60 0,0
23.05.2019 16:00:00 23,2 10,6 31,0 19,1 18 10 29 16 SSW 1013,0 20 60 0,0
23.05.2019 15:00:00 22,3 10,8 31,7 18,7 14 8 26 14 S 1013,8 20 60 0,0
23.05.2019 14:00:00 21,4 11,1 30,4 18,3 16 9 29 16 SSW 1014,4 20 60 0,0
23.05.2019 13:00:00 20,1 12,6 30,9 18,1 17 9 25 14 SW 1015,2 20 60 0,0
23.05.2019 12:00:00 18,8 11,4 28,1 17,9 14 8 21 12 SSW 1016,1 20 60 0,0
23.05.2019 11:00:00 16,9 11,6 27,3 17,9 17 9 24 13 SW 1016,8 20 60 0,0
23.05.2019 10:00:00 15,4 10,6 23,9 17,9 9 5 19 10 SSW 1017,3 20 60 0,0
23.05.2019 09:00:00 14,9 9,7 18,9 18,1 10 5 15 8 WSW 1017,1 20 60 0,0
23.05.2019 08:00:00 13,0 8,5 11,1 18,3 3 1 12 6 E 1016,7 20 60 0,0
23.05.2019 07:00:00 10,5 8,6 7,1 18,5 4 2 10 5 ENE 1017,0 20 20 0,0
23.05.2019 06:00:00 7,9 7,5 7,0 18,7 5 3 8 4 NE 1017,4 20 0 0,0
23.05.2019 05:00:00 8,3 7,5 7,3 18,9 4 2 10 5 NNE 1017,4 20 0 0,0
23.05.2019 04:00:00 8,8 8,0 7,9 19,1 4 2 9 5 ENE 1017,5 20 0 0,2
23.05.2019 03:00:00 9,4 8,6 8,6 19,3 3 2 6 3 N 1017,3 20 0 0,0
23.05.2019 02:00:00 10,0 9,1 9,5 19,5 3 2 8 5 W 1017,2 20 0 0,0
23.05.2019 01:00:00 11,3 10,2 10,6 19,6 0 0 8 4 N 1016,7 20 0 0,0
23.05.2019 00:00:00 12,8 10,9 11,9 19,7 3 2 11 6 E 1016,1 20 0 0,0
22.05.2019 23:00:00 14,5 12,2 13,3 19,8 4 2 11 6 ENE 1015,7 20 0 0,0
22.05.2019 22:00:00 16,4 12,9 15,1 19,8 4 2 16 9 ESE 1014,8 20 0 0,0
22.05.2019 21:00:00 18,0 14,1 17,8 19,8 4 2 9 5 SE 1013,8 20 1 0,0
22.05.2019 20:00:00 18,2 14,7 18,9 19,7 0 0 9 5 N 1013,3 20 4 0,0
22.05.2019 19:00:00 18,2 13,5 17,2 19,6 3 2 22 12 NNW 1013,4 20 1 0,4
22.05.2019 18:00:00 20,3 11,0 21,6 19,3 15 8 35 19 W 1013,1 20 12 0,0
22.05.2019 17:00:00 23,6 11,0 26,7 18,9 21 12 38 20 SW 1012,1 20 48 0,0
22.05.2019 16:00:00 23,5 10,9 28,5 18,4 22 12 34 19 SSW 1012,3 20 58 0,0
22.05.2019 15:00:00 22,4 12,1 31,9 18,0 19 10 29 16 SSW 1012,7 20 60 0,0
22.05.2019 14:00:00 21,5 12,3 30,0 17,6 18 10 29 16 SSW 1013,0 20 60 0,0
22.05.2019 13:00:00 20,4 12,6 30,4 17,3 17 9 29 16 SSW 1013,5 19 60 0,0
22.05.2019 12:00:00 19,6 12,4 29,8 17,1 13 7 23 12 SSW 1013,8 20 60 0,0
22.05.2019 11:00:00 18,1 11,4 26,4 17,1 13 7 26 14 SW 1014,0 20 60 0,0
22.05.2019 10:00:00 16,2 10,1 24,0 17,1 13 7 18 10 SSW 1014,5 20 60 0,0
22.05.2019 09:00:00 15,0 9,6 14,1 17,2 10 5 13 7 SSW 1014,9 20 52 0,0
22.05.2019 08:00:00 10,8 9,4 9,2 17,4 5 3 8 4 SSE 1015,4 20 16 0,0
22.05.2019 07:00:00 9,3 8,5 7,9 17,6 3 2 8 5 E 1015,1 20 0 0,0
22.05.2019 06:00:00 8,7 7,9 8,0 17,8 2 1 11 6 SE 1015,0 19 0 0,0
22.05.2019 05:00:00 9,6 8,8 8,6 17,9 5 3 9 5 ESE 1014,7 19 0 0,0
22.05.2019 04:00:00 10,4 9,2 9,8 18,1 3 2 13 7 N 1014,3 20 0 0,0
22.05.2019 03:00:00 11,1 9,5 10,4 18,2 8 5 12 7 W 1014,1 20 0 0,0
22.05.2019 02:00:00 13,1 10,5 13,1 18,3 10 5 19 11 W 1013,5 20 0 0,0
22.05.2019 01:00:00 13,3 10,5 12,7 18,5 13 7 17 9 WSW 1013,7 20 0 0,0
22.05.2019 00:00:00 15,0 9,6 13,9 18,6 7 4 19 10 WSW 1013,1 20 0 0,0
21.05.2019 23:00:00 17,0 7,6 16,5 18,7 15 8 29 15 N 1012,4 20 0 0,0
21.05.2019 22:00:00 18,3 7,4 18,3 18,7 13 7 31 17 N 1011,2 20 0 0,0
21.05.2019 21:00:00 18,9 7,3 19,2 18,7 19 10 37 20 N 1010,1 20 0 0,0
21.05.2019 20:00:00 20,0 7,0 20,7 18,6 21 12 36 19 N 1009,0 20 3 0,0
21.05.2019 19:00:00 21,1 7,0 22,5 18,4 17 9 35 19 N 1008,6 20 4 0,0
21.05.2019 18:00:00 21,8 7,6 24,3 18,2 19 10 36 20 N 1008,1 20 9 0,0
21.05.2019 17:00:00 22,2 7,6 24,4 17,8 15 8 33 18 NNE 1007,8 20 26 0,0
21.05.2019 16:00:00 22,7 7,6 29,0 17,4 16 9 33 18 NNE 1007,5 20 60 0,0
21.05.2019 15:00:00 22,2 7,2 28,3 17,0 14 7 33 18 N 1007,8 20 60 0,0
21.05.2019 14:00:00 21,4 6,1 27,9 16,7 18 10 40 22 N 1008,0 20 60 0,0
21.05.2019 13:00:00 20,9 7,5 27,0 16,4 23 13 40 21 N 1008,3 20 60 0,0
21.05.2019 12:00:00 19,8 7,8 24,9 16,3 24 13 38 21 N 1008,6 20 60 0,0
21.05.2019 11:00:00 18,6 7,7 23,6 16,3 21 11 42 23 N 1008,8 20 60 0,0
21.05.2019 10:00:00 17,2 8,6 20,8 16,3 18 10 39 21 N 1008,9 20 60 0,0
21.05.2019 09:00:00 15,3 8,1 15,6 16,4 15 8 39 21 NNE 1009,2 20 58 0,0
21.05.2019 08:00:00 13,5 7,7 13,1 16,5 16 9 30 16 NNE 1009,3 20 53 0,0
21.05.2019 07:00:00 12,0 7,1 11,5 16,7 9 5 32 18 ENE 1009,4 20 18 0,0
21.05.2019 06:00:00 12,0 6,9 11,5 16,8 11 6 31 17 NE 1009,3 20 0 0,0
21.05.2019 05:00:00 12,4 7,1 11,8 17,0 16 8 33 18 N 1009,1 20 0 0,0
21.05.2019 04:00:00 13,1 7,3 12,5 17,1 11 6 31 17 NNE 1009,1 20 0 0,0
21.05.2019 03:00:00 13,2 7,4 12,6 17,3 17 9 32 18 N 1009,3 20 0 0,0
21.05.2019 02:00:00 13,5 7,3 13,1 17,4 16 9 37 20 N 1009,2 20 0 0,0
21.05.2019 01:00:00 13,7 7,2 13,5 17,6 19 11 40 22 N 1009,3 20 0 0,0
21.05.2019 00:00:00 14,1 7,4 14,1 17,7 21 12 42 23 N 1008,9 20 0 0,0
20.05.2019 23:00:00 14,6 7,2 14,4 17,8 26 14 45 24 N 1008,7 20 0 0,0
20.05.2019 22:00:00 14,9 7,2 14,8 17,8 19 10 44 24 N 1008,8 20 0 0,0
20.05.2019 21:00:00 16,1 6,8 16,2 17,8 24 13 48 26 N 1007,7 20 36 0,0
20.05.2019 20:00:00 17,1 6,6 18,2 17,7 27 15 46 25 N 1007,2 20 57 0,0
20.05.2019 19:00:00 17,8 6,9 19,8 17,5 30 16 46 25 N 1006,7 20 22 0,0
20.05.2019 18:00:00 18,7 7,8 21,6 17,3 23 12 48 26 N 1006,0 20 49 0,0
20.05.2019 17:00:00 19,1 7,8 23,4 17,0 23 12 54 29 N 1005,6 20 60 0,0
20.05.2019 16:00:00 19,5 7,9 22,5 16,7 23 12 48 26 NNW 1005,2 20 34 0,0
20.05.2019 15:00:00 19,2 8,2 23,2 16,4 28 15 48 26 N 1005,3 20 38 0,0
20.05.2019 14:00:00 18,7 8,1 22,3 16,1 28 15 46 25 N 1005,3 20 20 0,0
20.05.2019 13:00:00 18,6 8,8 22,9 15,9 27 14 43 23 N 1005,1 20 40 0,0
20.05.2019 12:00:00 16,6 10,4 23,4 15,7 10 5 23 13 W 1005,5 20 42 0,0
20.05.2019 11:00:00 14,1 10,9 19,7 15,7 8 4 11 6 SSW 1006,1 20 3 0,0
20.05.2019 10:00:00 12,4 10,6 17,3 15,6 4 2 9 5 S 1006,2 20 38 0,0
20.05.2019 09:00:00 10,9 9,8 12,2 15,7 0 0 7 4 N 1006,3 20 57 0,0
20.05.2019 08:00:00 8,8 8,7 9,4 15,8 3 2 16 8 ESE 1006,5 20 2 0,0
20.05.2019 07:00:00 7,9 7,8 9,1 15,9 10 5 18 10 SE 1006,4 20 0 0,0
20.05.2019 06:00:00 8,2 8,1 9,2 16,0 9 5 16 9 SE 1006,0 20 0 0,0
20.05.2019 05:00:00 8,5 8,4 9,8 16,1 6 3 16 8 ESE 1005,9 20 0 0,0
20.05.2019 04:00:00 8,8 8,7 9,3 16,2 5 3 9 5 SE 1006,2 20 0 0,0
20.05.2019 03:00:00 9,1 9,0 9,9 16,3 5 3 11 6 ESE 1006,4 20 0 0,0
20.05.2019 02:00:00 9,1 9,0 10,0 16,4 6 3 13 7 ESE 1006,6 20 0 0,0
20.05.2019 01:00:00 9,3 9,2 10,1 16,4 6 3 14 8 E 1006,7 6 0 0,0
20.05.2019 00:00:00 10,0 9,8 10,2 16,5 0 0 4 2 N 1006,6 11 0 0,0
19.05.2019 23:00:00 10,3 9,8 10,6 16,6 0 0 4 2 N 1006,7 20 0 0,2
19.05.2019 22:00:00 10,7 10,2 11,6 16,7 0 0 4 2 N 1006,3 15 0 0,8
19.05.2019 21:00:00 10,8 9,9 11,6 16,8 0 0 5 3 N 1005,9 12 0 1,0
19.05.2019 20:00:00 11,0 10,2 12,1 16,8 3 1 9 5 E 1005,5 11 0 1,4
19.05.2019 19:00:00 11,1 9,8 12,2 16,8 2 1 8 5 E 1005,1 12 0 2,4
19.05.2019 18:00:00 11,7 11,2 13,1 16,8 4 2 8 5 E 1004,9 12 0 2,0
19.05.2019 17:00:00 11,8 11,3 12,9 16,7 4 2 14 8 SSW 1004,6 11 0 7,5
19.05.2019 16:00:00 12,6 11,3 13,5 16,6 9 5 19 11 SSW 1004,5 13 0 1,2
19.05.2019 15:00:00 13,5 11,0 16,0 16,4 11 6 18 10 SSW 1003,7 20 0 0,0
19.05.2019 14:00:00 13,6 11,5 15,8 16,3 10 6 14 8 SW 1003,7 20 0 1,0
19.05.2019 13:00:00 13,2 10,7 15,1 16,1 10 5 15 8 SW 1003,8 20 0 0,4
19.05.2019 12:00:00 13,3 10,5 15,8 16,0 10 6 17 9 WSW 1003,8 20 33 0,2
19.05.2019 11:00:00 12,4 10,6 16,7 15,9 7 4 11 6 SSW 1004,2 20 7 0,0
19.05.2019 10:00:00 12,6 10,7 14,4 16,0 0 0 11 6 N 1004,3 20 10 0,0
19.05.2019 09:00:00 10,8 9,9 11,8 16,0 5 3 9 5 N 1004,9 20 0 0,0
19.05.2019 08:00:00 10,1 9,8 11,2 16,1 0 0 5 3 N 1005,0 19 0 0,0
19.05.2019 07:00:00 9,8 9,7 10,6 16,2 2 1 5 3 NNW 1005,2 20 0 0,0
19.05.2019 06:00:00 9,7 9,6 10,6 16,2 3 1 5 3 NW 1005,2 19 0 0,0
19.05.2019 05:00:00 9,8 9,7 10,6 16,4 0 0 6 4 N 1005,3 19 0 0,0
19.05.2019 04:00:00 10,3 10,1 11,0 16,4 0 0 5 3 N 1005,7 10 0 0,0
19.05.2019 03:00:00 10,1 9,9 11,0 16,6 0 0 3 1 N 1006,1 7 0 0,0
19.05.2019 02:00:00 10,4 10,1 11,2 16,6 0 0 4 2 N 1006,4 10 0 0,0
19.05.2019 01:00:00 10,5 10,2 11,3 16,8 0 0 4 2 N 1006,9 12 0 0,0
19.05.2019 00:00:00 10,4 10,1 11,3 16,9 3 2 4 2 SSE 1007,4 20 0 0,0
18.05.2019 23:00:00 10,6 10,3 11,4 17,0 0 0 3 2 N 1007,5 14 0 0,8
18.05.2019 22:00:00 10,6 10,1 11,4 17,0 0 0 5 3 N 1007,6 13 0 2,3
18.05.2019 21:00:00 10,7 10,1 11,4 17,1 4 2 10 5 W 1007,2 13 0 1,8
18.05.2019 20:00:00 11,5 10,4 12,2 17,1 7 4 21 11 WSW 1006,6 13 0 2,0
18.05.2019 19:00:00 12,6 11,0 13,3 17,1 6 3 16 8 E 1005,6 19 0 0,4
18.05.2019 18:00:00 12,9 10,3 13,8 17,0 3 2 20 11 E 1005,4 20 0 1,6
18.05.2019 17:00:00 13,5 9,7 14,7 16,8 16 9 22 12 SSW 1004,8 20 0 0,0
18.05.2019 16:00:00 16,0 6,1 20,3 16,7 3 2 15 8 E 1004,0 20 5 0,0
18.05.2019 15:00:00 16,0 7,7 20,2 16,5 5 3 13 7 W 1004,2 20 0 0,0
18.05.2019 14:00:00 15,2 8,4 20,8 16,4 9 5 17 9 SSW 1004,4 20 0 0,0
18.05.2019 13:00:00 15,8 8,5 20,4 16,3 6 4 16 9 SW 1004,6 20 7 0,0
18.05.2019 12:00:00 14,5 7,8 18,9 16,2 8 4 23 12 N 1004,9 20 0 0,0
18.05.2019 11:00:00 13,2 7,8 15,1 16,2 12 7 19 11 NNW 1005,2 20 0 0,0
18.05.2019 10:00:00 11,8 7,9 14,5 16,2 10 6 18 10 N 1005,3 20 0 0,0
18.05.2019 09:00:00 10,6 8,4 11,7 16,3 3 2 7 4 SSE 1005,4 20 0 0,0
18.05.2019 08:00:00 9,5 8,1 9,7 16,4 5 3 9 5 SW 1005,6 20 0 0,0
18.05.2019 07:00:00 9,1 7,4 9,8 16,5 5 3 9 5 SW 1005,3 20 0 0,0
18.05.2019 06:00:00 9,5 7,6 9,9 16,6 4 2 16 9 WNW 1005,0 20 0 0,0
18.05.2019 05:00:00 10,0 7,6 10,3 16,7 7 4 14 8 NNW 1005,0 20 0 0,0

tt = Température de l'air
td = dewpoint
tt 5cm = Température de l'air 5cm
tt -20cm = Température de l'air -20cm
ff = Vitesse du vent
fx = gusts
dd = Direction du vent
ppp = reduced air pressure
vv = visibility
sd = Ensoleillement
rr = Quantités de précipitations

stations d'obs. à proximité